CAPE
0 0 0 0 0 127 185 255 114 153 80 198 76 11 3 0 0 0 5 3 16 0 0 0 0 0 0 0 0 0 0 0 67 93 16 0 0 11 0 0 0 0 0
0 0 0 0 0 0 0 0 0 0 0 0 0 0 0 0 4 16 0 7 5 0 0 0 0 0 0 0 0 0 0 0 4 68 51 5 0 0 2 31 0 0 0
0 0 0 0 0 0 0 0 0 0 0 0 0 0 0 5 2 5 3 0 0 0 0 0 0 0 0 0 0 0 0 1 0 7 81 41 13 10 0 4 14 23 5
0 0 0 0 0 0 0 0 0 0 0 0 0 0 0 0 0 0 0 0 0 0 0 0 0 0 0 0 0 0 2 6 0 0 5 3 1 15 2 2 8 108 72
0 0 0 0 0 0 0 0 0 0 0 0 0 0 0 0 0 0 0 0 0 0 0 0 0 0 0 0 7 0 0 0 0 0 0 0 0 0 9 2 0 0 0
0 0 0 0 0 0 0 0 0 0 1 0 0 0 0 0 0 0 0 0 0 0 0 0 0 0 0 0 0 0 1 0 0 0 0 2 8 6 4 2 0 0 0
0 0 0 0 0 3 6 0 0 0 0 0 0 0 0 0 0 0 0 0 0 0 0 0 0 0 0 0 0 1 0 1 0 2 4 2 4 5 5 7 14 13 9
0 0 0 2 1 1 0 0 0 0 0 0 0 2 0 0 0 6 1 0 0 0 0 0 0 0 0 0 0 0 0 3 1 0 2 9 14 14 14 14 13 19 5
0 0 6 7 0 0 0 0 0 0 0 0 0 0 0 0 2 8 0 0 0 0 0 0 0 0 0 0 0 0 2 4 0 0 5 17 11 3 0 0 2 14 12
1 11 4 2 0 2 0 7 0 0 0 0 0 0 0 0 0 1 1 0 0 0 1 6 4 4 0 0 0 6 5 14 1 2 1 4 9 28 20 41 24 12 4
0 0 0 0 0 0 1 0 0 0 0 0 0 0 0 0 0 0 0 0 0 1 7 19 1 9 21 17 14 19 16 23 28 25 28 25 25 7 19 21 36 36 26
10 0 5 3 5 3 2 0 0 0 0 0 0 0 0 0 0 0 0 0 8 14 24 21 24 27 17 19 16 15 20 30 19 5 0 0 3 1 1 3 5 8 4
2 9 3 7 2 1 0 0 0 0 0 0 0 0 1 0 0 0 3 0 2 13 8 24 20 28 31 18 5 5 13 0 0 0 0 0 0 0 0 0 3 4 8
0 0 0 0 0 0 0 0 0 0 0 0 0 0 1 0 0 5 7 4 1 22 26 24 14 8 0 1 1 0 0 0 0 0 0 0 0 0 5 0 0 0 0
0 0 0 0 0 0 0 0 0 0 0 0 0 0 0 0 0 22 26 19 18 18 18 16 3 5 8 0 0 0 0 0 0 0 0 0 3 45 7 0 0 0 0
0 0 0 0 0 0 0 0 0 0 0 0 11 10 1 0 7 18 18 33 28 26 11 0 6 15 12 0 0 0 0 0 0 0 0 0 10 1 26 36 9 0 0
0 0 0 0 0 5 3 0 0 0 0 0 13 26 0 2 1 10 23 16 21 1 0 3 11 5 0 0 0 0 0 0 0 0 0 0 7 1 0 0 0 0 7
0 0 0 0 16 5 0 3 12 0 0 0 0 11 1 0 0 21 16 12 0 0 1 5 1 0 0 0 0 0 0 0 0 0 0 0 0 0 4 2 0 3 2
0 0 3 5 0 5 23 23 17 15 14 13 1 1 1 6 0 0 4 0 0 1 8 1 0 0 0 0 11 1 0 0 0 0 0 5 1 11 34 9 0 0 0
0 0 2 1 1 1 0 0 4 18 69 34 0 1 0 2 0 0 0 0 2 6 0 0 0 0 0 12 29 28 0 0 0 0 0 13 14 29 8 6 5 0 0
1 0 0 0 0 0 0 0 0 17 30 68 3 5 24 1 0 0 0 0 5 2 0 0 0 0 3 1 26 0 0 1 3 2 1 0 21 3 4 8 3 2 4
0 0 0 0 0 0 0 5 9 16 67 82 61 16 0 4 0 0 0 2 0 0 0 0 0 2 12 17 15 11 2 2 2 6 3 17 2 14 8 4 5 15 5
0 0 0 0 0 0 10 3 5 34 33 76 76 13 0 0 0 0 0 0 0 0 0 0 0 3 0 0 3 0 0 5 0 3 8 4 5 21 6 10 21 6 0
0 0 0 0 1 11 0 2 11 0 23 47 16 0 0 0 0 0 0 0 0 0 1 1 0 0 0 0 0 0 0 4 2 1 0 0 10 1 3 10 9 5 10
0 0 0 5 4 5 1 4 6 2 0 2 1 0 0 1 0 0 0 0 0 0 0 0 0 0 0 0 1 3 1 0 4 0 0 6 1 2 1 3 2 8 6
0 1 1 0 0 4 0 5 5 0 3 2 5 0 0 0 0 0 1 0 0 0 0 0 0 0 0 0 3 7 9 6 9 0 4 1 0 0 1 5 2 2 3
CIN
-0 -0 -0 -0 -0 -155 -97 -115 -133 -184 -184 -77 -104 -191 -192 -0 -0 -65 -112 -125 -84 -0 -0 -0 -0 -0 -0 -0 -0 -0 -0 -0 -9 -8 -13 -0 -0 -22 -0 -0 -0 -0 -0
-0 -0 -0 -0 -0 -0 -0 -0 -0 -0 -0 -0 -0 -0 -0 -16 -124 -87 -0 -76 -47 -0 -0 -0 -0 -0 -0 -0 -0 -0 -0 -0 -10 -4 -7 -2 -0 -0 -4 -28 -1 -0 -0
-0 -0 -0 -0 -0 -0 -0 -0 -0 -0 -0 -0 -0 -0 -0 -33 -81 -92 -82 -0 -0 -0 -0 -0 -0 -0 -0 -0 -0 -0 -0 -4 -0 -16 -5 -6 -3 -8 -0 -11 -39 -49 -58
-0 -0 -0 -0 -0 -0 -0 -0 -0 -0 -0 -0 -0 -0 -0 -0 -0 -0 -0 -0 -0 -0 -0 -0 -0 -0 -0 -0 -0 -0 -19 -23 -0 -0 -23 -9 -8 -0 -2 -3 -11 -99 -80
-0 -0 -0 -0 -0 -0 -0 -0 -0 -0 -0 -0 -0 -0 -0 -0 -0 -0 -0 -0 -0 -0 -0 -0 -0 -0 -0 -0 -11 -0 -0 -0 -0 -0 -0 -0 -0 -0 -23 -8 -0 -3 -0
-0 -0 -0 -0 -0 -0 -0 -0 -0 -0 -3 -0 -0 -0 -0 -0 -0 -3 -0 -0 -0 -0 -0 -0 -0 -0 -0 -0 -0 -0 -21 -0 -0 -0 -2 -0 -0 -0 -0 -0 -0 -0 -0
-0 -0 -0 -0 -0 -1 -2 -0 -0 -0 -0 -0 -0 -0 -0 -0 -0 -0 -0 -0 -0 -0 -0 -0 -0 -0 -0 -0 -25 -76 -34 -54 -0 -0 -0 -0 -0 -0 -0 -0 -0 -0 -0
-0 -0 -0 -1 -6 -3 -0 -0 -0 -0 -0 -0 -0 -33 -3 -0 -0 -9 -20 -0 -0 -0 -0 -0 -0 -0 -0 -0 -0 -0 -0 -25 -15 -0 -3 -1 -0 -0 -0 -0 -0 -0 -0
-0 -0 -4 -6 -0 -0 -0 -0 -0 -0 -0 -0 -0 -0 -0 -0 -5 -27 -2 -0 -0 -0 -0 -0 -0 -0 -0 -0 -0 -6 -30 -1 -0 -0 -0 -1 -3 -5 -0 -0 -0 -0 -0
-1 -1 -2 -4 -1 -3 -0 -22 -0 -0 -0 -0 -0 -0 -0 -0 -0 -2 -17 -0 -0 -0 -11 -16 -5 -2 -1 -0 -2 -9 -3 -6 -3 -6 -6 -1 -8 -7 -18 -6 -0 -1 -3
-0 -0 -0 -0 -5 -0 -41 -0 -0 -0 -0 -0 -0 -0 -0 -0 -0 -2 -0 -0 -0 -6 -5 -5 -8 -9 -6 -7 -4 -6 -9 -9 -11 -9 -8 -4 -10 -9 -11 -14 -17 -15 -13
-1 -0 -7 -13 -42 -60 -71 -0 -0 -0 -0 -0 -0 -0 -0 -0 -0 -0 -0 -0 -5 -4 -12 -13 -7 -3 -4 -5 -6 -4 -5 -5 -4 -3 -2 -0 -1 -13 -21 -18 -13 -11 -14
-0 -5 -12 -27 -30 -53 -0 -0 -0 -0 -0 -0 -0 -0 -3 -0 -0 -0 -15 -0 -21 -22 -7 -15 -11 -7 -6 -3 -4 -7 -5 -0 -0 -0 -0 -0 -0 -0 -0 -16 -12 -13 -5
-0 -0 -0 -11 -0 -0 -0 -0 -0 -0 -0 -0 -0 -0 -3 -0 -0 -9 -9 -6 -11 -6 -6 -11 -6 -13 -0 -4 -10 -2 -0 -0 -0 -0 -0 -0 -0 -7 -9 -0 -0 -0 -0
-2 -0 -0 -0 -0 -0 -0 -0 -0 -0 -0 -0 -0 -3 -5 -0 -0 -7 -8 -7 -11 -7 -13 -7 -9 -8 -5 -0 -0 -0 -0 -0 -0 -0 -0 -0 -2 -3 -24 -5 -0 -0 -0
-0 -0 -0 -0 -0 -0 -0 -0 -0 -0 -0 -0 -9 -9 -14 -11 -4 -7 -12 -8 -5 -4 -7 -2 -11 -8 -2 -0 -0 -0 -0 -0 -0 -0 -0 -0 -2 -10 -13 -8 -18 -0 -0
-0 -0 -0 -0 -0 -0 -1 -0 -0 -0 -0 -0 -5 -2 -5 -2 -29 -11 -4 -3 -3 -8 -0 -8 -7 -14 -0 -0 -0 -0 -0 -0 -0 -0 -0 -0 -0 -8 -0 -0 -0 -6 -6
-0 -0 -0 -0 -5 -2 -0 -5 -2 -0 -0 -0 -0 -6 -2 -0 -0 -3 -0 -5 -0 -0 -10 -9 -5 -0 -0 -0 -0 -0 -0 -0 -0 -1 -0 -0 -0 -0 -2 -3 -1 -3 -7
-0 -0 -10 -5 -0 -2 -0 -19 -10 -6 -3 -14 -10 -1 -0 -2 -0 -1 -7 -0 -0 -5 -8 -14 -0 -0 -0 -0 -2 -0 -0 -0 -0 -0 -0 -3 -7 -1 -0 -1 -0 -0 -0
-0 -0 -1 -2 -1 -6 -0 -0 -2 -2 -3 -8 -41 -61 -15 -0 -3 -0 -0 -0 -2 -7 -58 -0 -0 -0 -0 -3 -2 -1 -8 -0 -0 -0 -0 -0 -1 -2 -0 -0 -0 -0 -0
-0 -0 -0 -0 -0 -0 -0 -0 -0 -2 -16 -70 -0 -50 -51 -7 -0 -0 -0 -0 -7 -36 -0 -0 -0 -0 -4 -10 -1 -1 -0 -0 -0 -1 -1 -0 -0 -0 -0 -0 -0 -0 -0
-0 -0 -0 -0 -0 -0 -0 -1 -0 -4 -8 -4 -9 -34 -0 -9 -0 -0 -0 -2 -5 -8 -0 -0 -0 -6 -2 -2 -2 -0 -0 -0 -0 -0 -1 -0 -0 -0 -0 -0 -0 -0 -0
-0 -0 -0 -0 -0 -0 -1 -4 -8 -4 -18 -11 -20 -16 -9 -0 -0 -0 -0 -0 -0 -0 -0 -2 -2 -2 -0 -0 -0 -0 -0 -0 -1 -1 -0 -0 -0 -0 -0 -0 -0 -0 -0
-0 -0 -0 -0 -0 -1 -2 -13 -7 -8 -27 -2 -6 -0 -0 -0 -0 -0 -0 -0 -0 -0 -14 -6 -0 -0 -0 -0 -0 -0 -0 -0 -0 -0 -0 -0 -0 -0 -0 -0 -0 -0 -0
-0 -0 -0 -0 -1 -3 -4 -5 -7 -10 -0 -11 -0 -0 -0 -0 -0 -0 -0 -0 -0 -0 -0 -0 -0 -0 -0 -0 -0 -2 -2 -5 -0 -0 -0 -0 -0 -0 -0 -0 -0 -0 -0
-0 -0 -0 -0 -0 -1 -1 -1 -3 -0 -1 -0 -0 -0 -0 -0 -0 -1 -4 -0 -0 -0 -0 -0 -0 -0 -0 -0 -0 -0 -0 -0 -0 -0 -0 -1 -1 -0 -0 -0 -0 -0 -1
Wind_Speed
16 16 15 13 13 10 12 12 11 5 5 3 3 4 5 4 4 4 6 4 3 2 3 4 5 4 5 5 6 5 7 7 5 6 8 9 10 8 9 9 6 8 11
14 14 13 11 11 9 8 8 9 8 6 5 3 1 1 2 2 2 2 3 3 5 5 5 5 5 4 7 6 6 6 6 5 7 8 10 10 8 11 9 10 12 10
12 12 12 11 9 8 7 7 7 7 6 7 4 5 4 3 3 5 4 5 6 6 5 5 5 5 4 4 6 8 9 9 7 7 6 10 11 8 6 10 5 9 7
12 11 11 10 8 7 7 6 6 6 6 6 6 7 4 5 5 4 4 5 7 6 7 7 6 6 5 6 5 7 7 6 9 7 8 10 7 5 10 4 6 5 6
9 9 9 9 9 6 5 4 5 3 6 3 3 2 4 4 4 4 6 6 6 7 8 8 7 6 5 6 6 7 7 5 6 7 9 9 9 9 6 9 5 6 7
8 8 7 7 9 5 4 4 5 6 5 3 1 2 3 4 4 4 4 4 4 5 7 9 7 6 8 8 6 7 8 6 7 6 6 5 4 4 3 3 8 8 6
5 4 5 5 4 3 1 1 3 5 7 7 7 6 5 6 6 6 4 6 5 5 8 8 9 7 6 7 7 6 6 5 4 5 3 2 3 2 1 2 3 4 4
3 2 5 4 6 7 7 7 7 8 8 7 7 8 8 4 4 5 3 3 4 4 9 6 6 6 5 4 4 3 3 4 3 4 5 4 3 3 2 1 2 3 3
2 4 6 6 5 5 5 5 5 6 6 7 6 6 5 6 5 5 4 3 4 5 6 4 4 4 4 3 3 3 4 3 2 5 7 5 5 4 4 5 5 3 3
2 3 3 2 1 4 6 6 7 8 9 8 7 8 7 7 6 5 5 7 6 4 4 3 3 5 5 6 5 4 5 5 4 4 6 6 5 6 5 6 5 6 5
5 4 5 6 6 6 5 6 6 8 8 9 9 7 7 7 6 7 7 5 4 3 4 4 3 8 9 6 6 6 7 6 7 6 6 6 7 7 6 4 4 7 8
5 3 5 6 3 2 4 6 6 7 8 8 7 7 6 7 7 7 5 7 6 6 6 7 6 7 8 7 6 6 6 7 5 7 7 8 8 7 6 4 6 5 6
4 4 5 5 6 7 4 6 7 6 7 8 8 8 6 7 7 7 6 6 7 6 5 6 7 9 10 7 6 6 6 7 8 10 11 11 10 8 5 7 7 6 7
12 10 7 8 10 8 6 6 6 6 7 8 7 8 5 5 5 4 5 5 6 7 7 6 7 7 8 9 7 8 7 6 7 9 11 12 12 10 7 4 5 8 8
13 13 12 11 11 9 8 7 5 7 6 8 8 8 4 2 4 5 6 6 6 6 6 8 6 6 7 6 6 7 7 7 8 9 12 12 14 20 10 7 6 6 5
13 14 13 12 11 9 9 7 8 6 7 10 7 8 1 3 4 5 6 6 6 6 6 6 7 7 7 8 8 7 6 9 10 11 12 12 15 13 12 9 10 7 5
14 15 12 11 10 11 8 8 10 7 7 10 10 5 3 3 4 7 8 7 6 5 5 6 6 6 8 8 9 11 7 8 9 11 11 12 10 13 9 9 8 10 13
13 12 10 11 12 8 9 10 9 7 8 10 8 8 1 5 4 7 7 5 4 5 5 5 6 7 7 10 8 9 6 7 9 10 12 12 12 10 12 11 9 9 9
10 11 12 11 11 12 9 11 11 11 11 12 13 8 4 4 4 6 5 5 5 5 4 4 6 6 6 12 14 9 6 7 8 10 10 11 11 16 21 12 10 11 9
11 12 13 12 12 12 14 15 15 14 12 13 7 6 10 9 3 3 4 4 5 5 5 5 5 8 7 10 13 13 5 6 8 9 11 15 15 11 11 7 7 8 8
13 14 14 13 14 14 15 15 16 16 14 10 13 5 4 8 4 3 3 4 5 4 4 4 4 6 6 6 15 9 3 6 8 9 9 9 18 18 17 13 8 10 10
15 15 14 14 12 13 14 15 14 15 11 12 13 10 12 5 6 5 3 5 5 4 3 3 4 4 5 9 10 9 14 16 8 10 9 9 23 21 15 14 15 16 9
14 13 13 15 14 14 13 14 15 14 13 10 6 8 4 6 7 4 5 4 4 3 2 4 6 6 6 6 13 17 20 18 10 9 15 23 22 14 10 14 16 11 6
14 12 14 15 14 12 14 15 13 14 15 13 9 8 6 6 5 4 4 2 2 2 3 4 4 4 6 6 7 8 8 13 11 11 12 12 7 8 9 8 7 5 4
13 14 13 14 15 14 12 13 13 12 10 7 5 4 4 3 4 3 3 1 3 2 1 2 2 3 4 6 14 13 8 9 8 11 8 4 6 7 7 7 8 7 6
14 14 15 16 16 14 12 12 10 8 7 7 4 2 3 2 2 2 3 4 0 3 6 8 4 3 9 14 17 17 18 19 14 7 5 5 5 6 7 6 7 6 7
Wind_Direction
57 58 48 41 61 36 46 41 57 24 3 19 4 19 18 13 1 18 86 34 61 32 313 295 296 330 308 305 308 298 302 298 295 292 282 280 272 273 250 239 218 217 212
75 74 69 59 60 55 56 55 63 35 24 51 39 53 318 337 318 278 122 259 25 23 328 319 302 311 317 314 310 309 305 289 281 278 284 290 287 269 264 257 240 232 225
98 87 80 76 71 62 67 78 80 73 44 359 30 13 349 336 352 352 354 18 13 344 320 335 324 319 312 318 328 312 301 303 306 289 278 293 282 300 295 297 298 275 256
97 101 103 100 87 68 41 64 60 54 55 31 8 12 330 341 354 331 353 9 348 357 355 349 346 352 336 327 307 317 319 322 318 328 346 348 348 321 307 287 303 322 281
101 111 109 102 83 72 60 35 356 74 111 70 30 350 351 339 337 336 352 342 13 357 4 349 339 343 337 307 333 28 27 10 359 354 356 342 333 319 326 307 324 326 20
116 112 110 117 120 114 97 10 344 4 16 102 359 330 346 322 338 328 345 11 352 349 346 346 329 336 18 20 11 14 25 12 12 355 345 347 326 326 328 314 313 305 308
88 66 64 40 69 96 57 51 2 343 358 10 9 14 10 357 355 351 350 358 349 345 336 347 34 33 31 25 20 23 28 12 353 324 311 300 286 273 269 269 299 308 321
124 59 57 41 30 21 22 0 4 355 3 3 352 16 12 359 352 343 11 349 340 326 46 36 29 26 31 33 27 23 6 331 291 269 244 260 262 262 264 272 301 301 283
40 345 37 46 36 10 349 10 349 334 351 2 16 4 337 345 330 354 2 328 333 9 51 43 13 353 346 334 302 289 312 295 335 342 336 294 255 232 233 224 208 219 296
246 351 1 17 329 341 357 22 21 3 2 357 5 351 337 343 337 318 342 35 24 13 322 354 327 320 294 277 265 280 280 250 237 235 245 259 259 251 245 246 245 240 238
325 328 18 350 9 18 1 18 21 6 358 4 351 344 337 324 334 28 19 1 323 328 299 308 320 293 297 294 277 267 269 266 263 267 269 273 271 268 263 264 244 234 226
310 350 24 47 45 348 0 15 26 13 5 341 325 328 326 347 355 350 352 338 320 322 345 348 329 308 301 288 286 283 295 285 312 310 314 311 316 312 303 304 298 291 289
321 25 27 2 13 358 19 39 15 357 335 319 328 324 328 13 10 346 9 332 329 332 310 297 287 280 278 298 311 301 321 17 349 337 326 313 308 303 302 304 299 298 293
25 5 360 10 355 349 4 5 336 350 319 321 315 305 57 355 315 337 303 286 274 273 276 294 321 326 320 319 346 358 359 354 336 323 313 307 300 287 281 307 295 298 311
10 10 353 340 345 334 342 320 338 316 324 309 304 316 62 336 312 297 293 311 328 331 323 308 322 322 313 30 22 4 346 332 320 313 303 297 296 302 263 270 271 260 265
347 334 334 336 321 310 299 332 327 317 307 296 293 281 342 310 306 330 300 294 303 321 322 331 328 331 344 79 43 15 337 326 321 308 299 294 304 300 331 286 301 313 290
339 334 333 320 306 294 338 330 296 300 310 304 296 312 32 352 314 296 303 301 312 320 332 331 329 2 19 51 27 5 333 318 310 307 311 312 309 323 326 321 296 249 239
335 331 316 294 281 298 292 287 292 319 300 297 293 290 325 284 286 287 283 321 327 330 327 320 33 15 346 356 2 341 318 320 310 318 312 308 309 308 309 302 298 281 277
308 284 269 286 299 297 320 297 293 305 297 309 293 330 277 252 283 305 332 337 325 309 302 23 14 351 327 316 315 320 309 298 299 299 298 298 304 303 312 306 286 279 274
293 299 300 317 330 335 340 335 326 317 303 293 12 342 327 295 318 333 332 311 297 314 57 29 351 319 313 324 320 313 315 306 308 310 307 302 299 323 328 318 310 299 289
320 334 336 336 341 342 338 334 324 317 354 350 291 273 296 312 352 5 329 301 309 37 61 11 305 310 309 310 317 4 328 315 317 311 312 307 312 325 319 308 289 278 292
330 337 339 332 337 336 328 316 323 332 327 330 324 355 321 348 341 314 315 332 347 37 50 355 332 312 318 331 346 352 338 334 327 319 310 316 317 314 314 310 293 289 288
335 336 331 336 330 316 315 332 332 348 350 326 309 285 14 357 329 9 326 352 13 45 10 341 317 330 340 337 7 348 340 335 327 317 320 316 309 321 314 305 309 290 264
328 336 336 316 314 325 340 331 345 350 348 336 355 10 19 321 299 20 350 9 23 17 322 313 323 332 331 333 351 335 329 331 328 327 311 301 345 341 329 338 335 319 333
340 331 317 316 321 324 333 341 351 356 348 4 353 338 295 322 26 359 336 0 35 34 325 299 331 322 326 330 329 332 331 325 321 319 308 357 359 352 349 349 350 352 357
322 323 324 326 322 328 328 324 348 349 343 321 319 314 283 9 351 349 338 70 295 252 269 272 253 302 306 330 334 337 335 329 329 320 350 358 359 351 340 350 353 344 340